Flag for U.S.A. Weather past 2 weeks in Dayton, Ohio, U.S.A.

Now
62 °F

Sunny.


Feels Like: 62 °F
Forecast: 45 / 68 °F
Wind: 2 mph from North

Location: Dayton / Wright-Patterson Air Force Base


UV Index: 3 (Moderate)

Visibility: 10 mi


Pressure: 30.30 "Hg

Humidity: 41%

Dew point: 38 °F

Location of DaytonLocation

Historic Weather in Dayton

°F

Dayton temperature yesterday

Maximum temperature yesterday: 68 °F (at 4:56 PM)
Minimum temperature yesterday: 35 °F (at 5:58 AM)
Average temperature yesterday: 52 °F

Past Weeks' High & Low Weather Summary

 TemperatureHumidityPressure
High80 °F (Apr 13, 4:58 PM)100% (Apr 4, 3:58 AM)30.46 "Hg (Apr 4, 3:58 AM)
Low24 °F (Apr 16, 6:58 AM)28% (Apr 10, 3:58 PM)29.37 "Hg (Apr 7, 7:58 PM)
Average51 °F65%29.97 "Hg
* Reported Apr 3 10:58 AM — Apr 18 10:58 AM, Dayton, Weather by CustomWeather, © 2014

Note: Actual official high and low records may vary slightly from our data, if they occured in-between our weather recording intervals... More about our weather records

Advertising

Historic Weather Conditions — Data for Previous 24 hours

 ConditionsComfort  
Time TempWeatherWind HumidityBarometerVisibility
10:58 AM
Apr 18
59 °FScattered clouds.No wind48%30.30 "Hg10 mi
9:58 AM52 °FScattered clouds.No wind67%30.31 "Hg10 mi
8:58 AM46 °FSunny.1 mph82%30.31 "Hg10 mi
7:58 AM40 °FSunny.1 mph88%30.30 "Hg10 mi
6:58 AM40 °FClear.1 mph81%30.29 "Hg10 mi
5:58 AM41 °FClear.5 mph90%30.28 "Hg10 mi
4:58 AM42 °FPassing clouds.2 mph85%30.28 "Hg10 mi
3:58 AM43 °FClear.No wind80%30.26 "Hg10 mi
2:58 AM43 °FClear.2 mph80%30.26 "Hg10 mi
1:58 AM43 °FClear.2 mph75%30.28 "Hg10 mi
12:58 AM45 °FClear.2 mph72%30.28 "Hg10 mi
11:58 PM
Apr 17
49 °FClear.No wind63%30.29 "Hg10 mi
10:58 PM52 °FClear.1 mph53%30.29 "Hg10 mi
9:58 PM55 °FClear.2 mph47%30.30 "Hg10 mi
8:58 PM59 °FSunny.6 mph40%30.30 "Hg10 mi
7:58 PM63 °FSunny.9 mph32%30.27 "Hg10 mi
6:58 PM65 °FSunny.13 mph30%30.26 "Hg10 mi
5:59 PM66 °FSunny.14 mph28%30.26 "Hg10 mi
4:58 PM67 °FSunny.14 mph29%30.28 "Hg10 mi
4:56 PM68 °FSunny.13 mph28%30.27 "Hg10 mi
3:58 PM66 °FSunny.17 mph28%30.30 "Hg10 mi
2:58 PM66 °FSunny.12 mph29%30.32 "Hg10 mi
1:58 PM64 °FSunny.9 mph33%30.33 "Hg10 mi
12:58 PM61 °FSunny.12 mph36%30.36 "Hg10 mi
Weather by CustomWeather, © 2014

See weather overview